FW6330 Weather Reports


Display with metric or nautical units.
time (UTC)temp
F
wind
direction
speed
MPH
gust
MPH
rain 1hr
in
rain 24hr
in
rain mn
in
humidity
%
barometer
mb
20260902080002 36 81 0.0 0.0 0.00 0.00 0.00 87 1016.3
20260902074600 36 84 0.0 0.0 0.00 0.00 0.00 86 1016.0
20260902073058 37 184 0.0 0.0 0.00 0.00 0.00 86 1016.1
20260902071555 38 307 0.0 0.0 0.00 0.00 0.00 86 1016.1
20260902070053 39 13 0.0 0.0 0.00 0.00 0.00 86 1015.8
20260902064550 39 201 0.0 0.0 0.00 0.00 0.00 85 1015.8
20260902063101 39 107 0.0 0.0 0.00 0.00 0.00 86 1015.5
20260902061611 39 193 0.0 0.0 0.00 0.00 0.00 87 1015.4
20260902060052 39 171 0.0 0.0 0.00 0.00 0.00 89 1015.3
20260902054545 38 148 0.0 0.0 0.00 0.00 0.00 89 1015.1
20260902053043 39 228 0.0 0.0 0.00 0.00 0.00 89 1015.1
20260902051540 39 270 0.0 0.0 0.00 0.00 0.00 87 1015.0
20260902050040 40 28 0.0 0.0 0.00 0.00 0.00 87 1014.8
20260902044539 40 279 0.0 0.0 0.00 0.00 0.00 85 1014.9
20260902043040 40 34 0.0 0.0 0.00 0.00 0.00 85 1014.7
20260902041547 41 146 0.0 0.0 0.00 0.00 0.00 83 1014.5
20260902040034 42 254 0.0 0.0 0.00 0.00 0.00 83 1014.3
20260902034532 43 165 0.0 0.0 0.00 0.00 0.00 81 1014.2
20260902033128 43 86 0.0 1.0 0.00 0.00 0.00 80 1014.0
20260902031526 44 217 0.0 1.0 0.00 0.00 0.00 78 1013.6
20260902030024 45 182 0.0 1.0 0.00 0.00 0.00 76 1013.4
20260902024523 46 77 0.0 1.0 0.00 0.00 0.00 74 1013.2
20260902023023 46 308 0.0 1.0 0.00 0.00 0.00 72 1013.2
20260902021522 47 45 0.0 1.0 0.00 0.00 0.00 70 1013.0
20260902020041 48 346 0.0 1.0 0.00 0.00 0.00 67 1012.9
20260902014521 49 177 0.0 2.0 0.00 0.00 0.00 65 1012.8
20260902013021 51 293 0.0 3.0 0.00 0.00 0.00 62 1012.7
20260902011520 51 4 0.0 3.0 0.00 0.00 0.00 62 1012.7
20260902010028 52 184 0.0 3.0 0.00 0.00 0.00 60 1012.7
20260902004519 53 332 0.0 5.0 0.00 0.00 0.00 58 1012.6
20260902003018 54 252 0.0 3.0 0.00 0.00 0.00 58 1012.6
20260902001519 55 285 0.0 3.0 0.00 0.00 0.00 57 1012.5
20260902000026 54 58 0.0 3.0 0.00 0.00 0.00 59 1012.4
20260901234518 54 318 0.0 4.0 0.00 0.00 0.00 59 1012.5
20260901233017 55 354 0.0 5.0 0.00 0.00 0.00 57 1012.6
20260901231519 55 207 0.0 8.0 0.00 0.00 0.00 55 1012.5
20260901230014 56 183 1.0 4.0 0.00 0.00 0.00 52 1012.7
20260901224519 57 264 0.0 4.0 0.00 0.00 0.00 53 1012.6
20260901223014 57 134 0.0 4.0 0.00 0.00 0.00 52 1012.6
20260901221521 57 111 0.0 4.0 0.00 0.00 0.00 50 1012.7
20260901220016 57 180 1.0 8.0 0.00 0.00 0.00 51 1012.7
20260901214511 58 182 1.0 8.0 0.00 0.00 0.00 49 1012.7
20260901213012 58 167 0.0 3.0 0.00 0.00 0.00 48 1012.7
20260901211511 59 84 0.0 6.0 0.00 0.00 0.00 45 1012.6
20260901210022 59 260 1.0 8.0 0.00 0.00 0.00 41 1012.5
20260901204515 60 99 1.0 8.0 0.00 0.00 0.00 36 1012.7
20260901203017 60 181 1.0 8.0 0.00 0.00 0.00 36 1012.6
20260901201507 60 136 1.0 7.0 0.00 0.00 0.00 36 1012.7
20260901200008 60 2 0.0 12.0 0.00 0.00 0.00 37 1012.7
20260901194505 60 12 0.0 7.0 0.00 0.00 0.00 34 1012.9
20260901193004 60 206 1.0 7.0 0.00 0.00 0.00 35 1013.0
20260901191503 59 226 2.0 9.0 0.00 0.00 0.00 36 1013.0
20260901190114 59 278 1.0 11.0 0.00 0.00 0.00 36 1012.8
20260901184701 59 47 1.0 6.0 0.00 0.00 0.00 37 1013.0
20260901183059 60 262 2.0 6.0 0.00 0.00 0.00 38 1012.8
20260901181600 60 281 1.0 5.0 0.00 0.00 0.00 40 1012.8
20260901180055 59 334 1.0 6.0 0.00 0.00 0.00 40 1012.7
20260901174608 59 143 1.0 7.0 0.00 0.00 0.00 43 1012.6
20260901173053 58 122 0.0 7.0 0.00 0.00 0.00 46 1012.5
20260901171556 58 255 2.0 7.0 0.00 0.00 0.00 47 1012.6
20260901170056 58 51 0.0 5.0 0.00 0.00 0.00 46 1012.5
20260901164551 58 181 1.0 5.0 0.00 0.00 0.00 42 1012.4
20260901163050 58 198 1.0 7.0 0.00 0.00 0.00 40 1012.3
20260901161549 58 20 0.0 3.0 0.00 0.00 0.00 42 1012.3
20260901160044 57 13 1.0 5.0 0.00 0.00 0.00 42 1012.3
20260901154543 57 81 0.0 6.0 0.00 0.00 0.00 42 1012.2
20260901153044 56 166 1.0 4.0 0.00 0.00 0.00 43 1012.1
20260901151538 55 7 0.0 1.0 0.00 0.00 0.00 49 1012.2
20260901150035 51 159 0.0 0.0 0.00 0.00 0.00 57 1012.4
20260901144530 47 122 0.0 0.0 0.00 0.00 0.00 69 1012.2
20260901143034 45 111 0.0 1.0 0.00 0.00 0.00 72 1012.2
20260901141528 42 62 0.0 1.0 0.00 0.00 0.00 76 1012.3
20260901140030 41 316 0.0 1.0 0.00 0.00 0.00 77 1012.1
20260901134527 40 112 0.0 0.0 0.00 0.00 0.00 78 1012.0
20260901133032 40 258 0.0 0.0 0.00 0.00 0.00 78 1011.9
20260901131526 41 78 0.0 0.0 0.00 0.00 0.00 78 1012.0
20260901130026 41 194 0.0 0.0 0.00 0.00 0.00 78 1012.0
20260901124523 41 190 0.0 0.0 0.00 0.00 0.00 78 1012.0
20260901123023 41 314 0.0 0.0 0.00 0.00 0.00 77 1012.1
20260901121521 42 91 0.0 0.0 0.00 0.00 0.00 76 1012.0
20260901120018 43 108 0.0 0.0 0.00 0.00 0.00 74 1012.0
20260901114512 44 315 0.0 0.0 0.00 0.00 0.00 72 1012.1
20260901113009 45 160 0.0 0.0 0.00 0.00 0.00 70 1012.0
20260901111507 47 100 0.0 0.0 0.00 0.00 0.00 67 1012.1
20260901110006 48 206 0.0 0.0 0.00 0.00 0.00 66 1012.1
20260901104512 48 169 0.0 1.0 0.00 0.00 0.00 65 1012.1
20260901103005 49 359 0.0 6.0 0.00 0.00 0.00 64 1012.1
20260901101503 49 221 0.0 2.0 0.00 0.00 0.00 65 1012.1
20260901100004 50 217 0.0 1.0 0.00 0.00 0.00 64 1012.1
20260901094503 50 120 0.0 2.0 0.00 0.00 0.00 65 1012.2
20260901093110 50 231 0.0 2.0 0.00 0.00 0.00 66 1012.3
20260901091604 50 94 0.0 4.0 0.00 0.00 0.00 69 1012.2
20260901090057 50 191 0.0 1.0 0.00 0.00 0.00 71 1012.3
20260901084552 48 152 0.0 2.0 0.00 0.00 0.00 73 1012.4
20260901083051 47 89 0.0 0.0 0.00 0.00 0.00 73 1012.4
20260901081550 47 231 0.0 0.0 0.00 0.00 0.00 71 1012.5